TimeHST,TemperatureF,Dew PointF,Humidity,Sea Level PressureIn,VisibilityMPH,Wind Direction,Wind SpeedMPH,Gust SpeedMPH,PrecipitationIn,Events,Conditions,WindDirDegrees,DateUTC
12:53 AM,72.0,64.9,78,30.14,7.0,ESE,23.0,28.8,0.00,Rain,Light Rain,110,2012-12-16 10:53:00
1:02 AM,71.6,66.2,83,30.14,8.0,ENE,19.6,29.9,0.01,Rain,Light Rain,70,2012-12-16 11:02:00
1:19 AM,73.4,64.4,73,30.14,10.0,ENE,20.7,25.3,0.01,,Overcast,70,2012-12-16 11:19:00
1:53 AM,73.0,64.0,73,30.14,10.0,ENE,23.0,29.9,0.01,,Mostly Cloudy,70,2012-12-16 11:53:00
2:53 AM,73.9,62.1,66,30.12,10.0,ENE,23.0,-,N/A,,Overcast,70,2012-12-16 12:53:00
3:53 AM,73.9,64.0,71,30.11,10.0,ENE,18.4,-,N/A,,Overcast,60,2012-12-16 13:53:00
4:53 AM,73.9,62.1,66,30.11,10.0,ENE,24.2,31.1,N/A,,Overcast,70,2012-12-16 14:53:00
5:53 AM,73.9,62.1,66,30.12,10.0,ENE,23.0,32.2,N/A,,Mostly Cloudy,70,2012-12-16 15:53:00
6:53 AM,73.0,62.1,68,30.14,10.0,ENE,23.0,-,N/A,,Clear,70,2012-12-16 16:53:00
7:53 AM,73.9,61.0,64,30.15,10.0,ENE,20.7,-,N/A,,Scattered Clouds,70,2012-12-16 17:53:00
8:53 AM,75.0,62.1,64,30.17,10.0,ENE,20.7,25.3,N/A,,Scattered Clouds,70,2012-12-16 18:53:00
9:53 AM,75.0,64.0,69,30.18,10.0,ENE,19.6,-,N/A,,Mostly Cloudy,70,2012-12-16 19:53:00
10:53 AM,77.0,64.0,64,30.17,10.0,ENE,15.0,-,N/A,,Partly Cloudy,70,2012-12-16 20:53:00
11:53 AM,77.0,64.0,64,30.15,10.0,ENE,18.4,-,N/A,,Scattered Clouds,70,2012-12-16 21:53:00
12:53 PM,78.1,66.0,66,30.12,10.0,ENE,16.1,-,N/A,,Scattered Clouds,60,2012-12-16 22:53:00
1:53 PM,77.0,66.9,71,30.09,10.0,NE,17.3,-,N/A,,Mostly Cloudy,50,2012-12-16 23:53:00
2:31 PM,78.8,64.4,61,30.09,10.0,ENE,17.3,-,N/A,,Mostly Cloudy,60,2012-12-17 00:31:00
2:39 PM,77.0,64.4,65,30.09,10.0,ENE,19.6,-,N/A,,Mostly Cloudy,60,2012-12-17 00:39:00
2:53 PM,78.1,64.0,62,30.09,10.0,ENE,15.0,-,N/A,,Mostly Cloudy,60,2012-12-17 00:53:00
3:02 PM,77.0,62.6,61,30.09,10.0,ENE,15.0,-,N/A,,Scattered Clouds,60,2012-12-17 01:02:00
3:53 PM,78.1,64.0,62,30.08,10.0,NE,16.1,-,N/A,,Mostly Cloudy,50,2012-12-17 01:53:00
4:53 PM,75.9,66.0,71,30.09,10.0,NE,16.1,-,N/A,,Mostly Cloudy,50,2012-12-17 02:53:00
5:15 PM,73.4,66.2,78,30.10,10.0,NE,17.3,-,N/A,,Overcast,50,2012-12-17 03:15:00
5:23 PM,75.2,66.2,73,30.11,10.0,ENE,19.6,-,N/A,,Overcast,60,2012-12-17 03:23:00
5:53 PM,73.9,66.0,76,30.11,10.0,ENE,18.4,-,N/A,,Overcast,60,2012-12-17 03:53:00
6:53 PM,73.0,66.9,81,30.12,10.0,ENE,17.3,-,N/A,,Overcast,60,2012-12-17 04:53:00
7:08 PM,71.6,66.2,83,30.13,3.0,ENE,19.6,26.5,0.01,Rain,Rain,70,2012-12-17 05:08:00
7:25 PM,71.6,68.0,88,30.13,10.0,ENE,18.4,-,0.01,,Overcast,60,2012-12-17 05:25:00
7:48 PM,73.4,68.0,83,30.14,10.0,ENE,21.9,27.6,0.01,,Overcast,60,2012-12-17 05:48:00
7:53 PM,73.0,68.0,84,30.14,10.0,ENE,20.7,27.6,0.01,,Overcast,60,2012-12-17 05:53:00
8:27 PM,73.4,68.0,83,30.14,10.0,ENE,23.0,32.2,0.03,,Overcast,70,2012-12-17 06:27:00
8:53 PM,73.9,68.0,82,30.14,10.0,NE,24.2,31.1,0.03,,Overcast,50,2012-12-17 06:53:00
9:21 PM,73.4,66.2,78,30.15,10.0,NE,25.3,31.1,N/A,,Overcast,50,2012-12-17 07:21:00
9:53 PM,73.9,66.0,76,30.15,10.0,ENE,26.5,33.4,N/A,,Overcast,60,2012-12-17 07:53:00
10:53 PM,73.9,66.0,76,30.15,10.0,ENE,23.0,33.4,N/A,,Mostly Cloudy,60,2012-12-17 08:53:00
11:23 PM,73.4,66.2,78,30.15,10.0,ENE,24.2,32.2,N/A,,Overcast,60,2012-12-17 09:23:00
11:53 PM,73.9,64.9,73,30.14,10.0,ENE,28.8,36.8,0.00,,Mostly Cloudy,70,2012-12-17 09:53:00